Voltar ao catálogo

THOR ABLE DEB

YO

AtivoVLEO
NORAD 115·DEBRIS·🇺🇸 United States

Lançado Apr 1, 1960 de Cape Canaveral Space Force Station

Loading…

Próximas Passagens (próximas 24 horas)

TLE

AtualizadoSource: Space-Track

Época: Sep 14, 2026, 09:27 UTC

1 00115U 60002D   26257.39428063  .00001736  00000-0  16307-3 0  9999
2 00115  48.1648  21.8190 0026439 299.5489  60.2794 14.98584536531517

Acompanhe THOR ABLE DEB em tempo real com AllMySat

Download on the App Store